Regional Weather Roundup
Issued by NWS Midland/Odessa, TX

Current Version | Previous Version | Text Only | Print | Product List | Glossary On
Versions: 1 2 3 4 5 6 7 8 9 10 11 12 13 14 15 16 17 18 19 20 21 22 23 24 25 26 27 28 29 30 31 32 33 34 35 36 37 38 39 40 41 42 43 44 45 46 47 48 49 50
000
ASUS44 KMAF 222010
RWRMAF
MIDLAND AREA WEATHER ROUNDUP
NATIONAL WEATHER SERVICE MIDLAND TX
300 PM CDT SUN MAY 22 2022

...IN SOUTHWEST TEXAS AND SOUTHEAST NEW MEXICO...

CITY           SKY/WX    TMP DP  RH WIND       PRES   REMARKS
ALPINE         CLOUDY    61  36  39 NE10      30.32S
ANDREWS        PTSUNNY   68  34  28 E6G16     30.25F
ARTESIA        CLOUDY    64  34  32 SE9       30.28F
BIG SPRING     MOSUNNY   69  38  32 NE9G21    30.23F
CARLSBAD       PTSUNNY   66  33  29 E8        30.24F
DRYDEN           N/A     77  47  34 E8G23     30.17F
FORT STOCKTON  MOSUNNY   69  37  30 NE10      30.23F
GUAD PASS      MOSUNNY   60  34  37 NE30G40   30.25F HAZE
HOBBS          MOSUNNY   66  28  24 E14       30.26F
LAMESA         NOT AVBL
MARFA          CLOUDY    65  39  38 NE18G25   30.26F
MIDLAND AIRPK  MOSUNNY   67  35  31 NE8       30.25F
MIDLAND INTL   MOSUNNY   67  35  30 E6        30.23F
ODESSA         MOSUNNY   67  37  33 E9        30.24F
PECOS          CLOUDY    66  34  31 E8        30.25F
PRESIDIO       FAIR      80  52  38 NE20      30.13F
SEMINOLE       MOSUNNY   68  34  27 E9        30.29F
SNYDER         CLOUDY    69  33  25 NE13      30.24F
WINK           CLOUDY    65  33  30 E8        30.23F
$$
...OTHER STATIONS IN TEXAS...

CITY           SKY/WX    TMP DP  RH WIND       PRES   REMARKS
ABILENE        SUNNY     75  46  35 VRB3      30.21F
AMARILLO       SUNNY     65  25  22 E7G18     30.27F
AUSTIN         PTSUNNY   79  62  56 N10G22    30.12F
BROWNSVILLE    PTSUNNY   82  71  69 CALM      30.03R
CORPUS CHRISTI CLOUDY    80  70  71 E6        30.06F
DALLAS FTW     PTSUNNY   69  53  56 N13G18    30.19F
DEL RIO        MOSUNNY   82  57  42 SE6       30.11F
EL PASO        CLOUDY    72  36  26 SE15G25   30.16F
HOUSTON INT    PTSUNNY   82  66  58 N8        30.07F
LUBBOCK        PTSUNNY   67  31  26 E6        30.26F
SAN ANGELO     SUNNY     77  44  30 NE7G16    30.18F
SAN ANTONIO    MOSUNNY   83  60  45 E7G17     30.12F
WACO           MOSUNNY   77  57  50 VRB6      30.16F
WICHITA FALLS  MOSUNNY   68  36  30 VRB7G23   30.31F
$$
...OTHER LOCATIONS IN NEW MEXICO...

CITY           SKY/WX    TMP DP  RH WIND       PRES   REMARKS
ALAMOGORDO     PTSUNNY   73  34  23 S12G18    30.16F
ALBUQUERQUE    MOSUNNY   65  32  29 SW10G18   30.20F
CANNON AFB     PTSUNNY   62  30  29 S8        30.28F
CLOVIS         PTSUNNY   63  30  28 SE12G18   30.30F
HOLLOMAN AFB   NOT AVBL
ROSWELL        CLOUDY    66  34  30 VRB6      30.25F
RUIDOSO        PTSUNNY   54  30  40 E16G22    30.32F
SANTA FE       SUNNY     58  31  35 S20G31    30.25F
TRUTH OR CONSE PTSUNNY   73  32  22 VRB7G30   30.15F
TUCUMCARI      MOSUNNY   66  30  26 S13G23    30.24F
$$



USA.gov is the U.S. government's official web portal to all federal, state and local government web resources and services.